Regional Weather Roundup
Issued by NWS

Home | Current Version | Previous Version | Graphics & Text | Print | Product List | Glossary On
Versions: 1 2 3 4 5 6 7 8 9 10 11 12 13 14 15 16 17 18 19 20 21 22 23 24 25 26 27 28 29 30 31 32 33 34 35 36 37 38 39 40 41 42 43 44 45 46 47 48 49 50
000
ASUS43 KLMK 052302
RWRKY
KENTUCKY REGIONAL WEATHER ROUNDUP
NATIONAL WEATHER SERVICE LOUISVILLE KY
600 PM EST MON DEC 05 2016

NOTE "FAIR" INDICATES FEW OR NO CLOUDS BELOW 12,000 FEET
WITH NO SIGNIFICANT WEATHER AND/OR OBSTRUCTIONS TO VISIBILITY.

KYZ001>023-026-027-061>063-070>075-060000-
WESTERN AND SOUTH CENTRAL KENTUCKY

CITY           SKY/WX    TMP DP  RH WIND       PRES   REMARKS
PADUCAH        CLOUDY    42  35  76 E7        29.89F
HENDERSON      PTCLDY    41  34  75 E5        29.94F
OWENSBORO      CLOUDY    42  35  76 E7        29.94F
HOPKINSVILLE   CLOUDY    42  40  91 NE7       29.90F
BOWLING GREEN  CLOUDY    44  38  79 NE8       29.93F
GLASGOW        NOT AVBL
$$

KYZ024-025-028>034-038-045-046-053-060000-
NORTH CENTRAL KENTUCKY

CITY           SKY/WX    TMP DP  RH WIND       PRES   REMARKS
LOUISVILLE/SDF CLOUDY    44  34  67 E6        29.98F
LOUISVILLE/LOU CLOUDY    44  34  67 E6        29.99F
FORT KNOX      CLOUDY    41  35  77 NE7       29.94F
$$

KYZ035>037-039>044-047>052-055>060-089>105-060000-
NORTHEAST KENTUCKY

CITY           SKY/WX    TMP DP  RH WIND       PRES   REMARKS
LEXINGTON      MOCLDY    43  35  73 NE9       29.99F
COVINGTON      CLOUDY    41  33  73 E5        30.03R
FRANKFORT      CLOUDY    43  34  70 E7        29.98F
$$

KYZ054-064>069-076>088-106>120-060000-
SOUTHEAST KENTUCKY

CITY           SKY/WX    TMP DP  RH WIND       PRES   REMARKS
JACKSON        PTCLDY    45  36  70 NE5       29.98F
LONDON         CLOUDY    46  38  73 NE7       29.95F
SOMERSET       NOT AVBL
MIDDLESBORO    PTCLDY    48  45  90 CALM      29.95F
MONTICELLO     CLOUDY    46  42  86 NW6       29.96F
$$




USA.gov is the U.S. government's official web portal to all federal, state and local government web resources and services.